When you browse on this site, cookies collect data to enhance your experience and personalize the content and advertising you see.
Visit our Privacy Policy to learn more. By continuing to use the site, you agree to this use of cookies and data.
  • In Austria
  • List of Countries
  • For 7 days
  • Water Temperature
  • Weather Map
  • News
  • Weather Widgets
  • user-avatar
    Login

    Hourly Weather Kalgoorlie

    Today, 22 October, Tuesday

    Time Temperature Precipitation Wind Pressure Humidity
    00:00 +21°C° 0 mm 7 mps 730 mmHg 54%
    01:00 +20°C° 0 mm 6 mps 730 mmHg 58%
    02:00 +19°C° 0 mm 5 mps 730 mmHg 62%
    03:00 +17°C° 0 mm 5 mps 730 mmHg 64%
    04:00 +16°C° 0 mm 5 mps 730 mmHg 66%
    05:00 +15°C° 0 mm 5 mps 730 mmHg 68%
    06:00 +17°C° 0 mm 6 mps 731 mmHg 61%
    07:00 +20°C° 0 mm 6 mps 731 mmHg 54%
    08:00 +21°C° 0 mm 7 mps 731 mmHg 45%
    09:00 +24°C° 0 mm 6 mps 731 mmHg 40%
    10:00 +27°C° 0 mm 6 mps 730 mmHg 34%
    11:00 +30°C° 0 mm 5 mps 730 mmHg 29%
    12:00 +31°C° 0 mm 3 mps 730 mmHg 25%
    13:00 +32°C° 0 mm 2 mps 729 mmHg 22%
    14:00 +32°C° 0 mm 0 mps 728 mmHg 19%
    15:00 +34°C° 0 mm 1 mps 728 mmHg 17%
    16:00 +34°C° 0 mm 1 mps 728 mmHg 16%
    17:00 +34°C° 0 mm 1 mps 728 mmHg 15%
    18:00 +32°C° 0 mm 1 mps 728 mmHg 17%
    19:00 +29°C° 0 mm 2 mps 728 mmHg 20%
    20:00 +27°C° 0 mm 1 mps 728 mmHg 20%
    21:00 +25°C° 0 mm 3 mps 728 mmHg 28%
    22:00 +23°C° 0 mm 4 mps 728 mmHg 36%
    23:00 +22°C° 0 mm 6 mps 728 mmHg 44%

    Tomorrow, 23 October, Wednesday

    Time Temperature Precipitation Wind Pressure Humidity
    00:00 +21°C° 0 mm 5 mps 728 mmHg 49%
    01:00 +20°C° 0 mm 4 mps 728 mmHg 53%
    02:00 +18°C° 0 mm 4 mps 727 mmHg 58%
    03:00 +18°C° 0 mm 3 mps 727 mmHg 63%
    04:00 +17°C° 0 mm 2 mps 727 mmHg 68%
    05:00 +16°C° 0 mm 1 mps 727 mmHg 72%
    06:00 +19°C° 0 mm 2 mps 728 mmHg 63%
    07:00 +21°C° 0 mm 3 mps 728 mmHg 54%
    08:00 +25°C° 0 mm 3 mps 728 mmHg 45%
    09:00 +27°C° 0 mm 4 mps 728 mmHg 35%
    10:00 +30°C° 0 mm 4 mps 728 mmHg 26%
    11:00 +33°C° 0 mm 5 mps 728 mmHg 16%
    12:00 +34°C° 0 mm 5 mps 727 mmHg 15%
    13:00 +35°C° 0 mm 6 mps 727 mmHg 13%
    14:00 +36°C° 0 mm 7 mps 726 mmHg 12%
    15:00 +35°C° 0 mm 7 mps 726 mmHg 12%
    16:00 +34°C° 0 mm 8 mps 726 mmHg 11%
    17:00 +33°C° 0 mm 8 mps 726 mmHg 11%
    18:00 +30°C° 0 mm 7 mps 726 mmHg 14%
    19:00 +27°C° 0 mm 7 mps 727 mmHg 18%
    20:00 +23°C° 0 mm 6 mps 727 mmHg 21%
    21:00 +22°C° 0 mm 6 mps 727 mmHg 27%
    22:00 +21°C° 0 mm 7 mps 728 mmHg 33%
    23:00 +20°C° 0 mm 7 mps 728 mmHg 39%

    Day after tomorrow, 24 October, Thursday

    Time Temperature Precipitation Wind Pressure Humidity
    00:00 +17°C° 0 mm 6 mps 728 mmHg 52%
    01:00 +16°C° 0 mm 5 mps 727 mmHg 64%
    02:00 +14°C° 0 mm 4 mps 727 mmHg 76%
    03:00 +14°C° 0 mm 5 mps 728 mmHg 73%
    04:00 +14°C° 0 mm 6 mps 728 mmHg 69%
    05:00 +15°C° 0 mm 6 mps 729 mmHg 66%
    06:00 +15°C° 0 mm 7 mps 729 mmHg 61%
    07:00 +16°C° 0 mm 7 mps 730 mmHg 56%
    08:00 +16°C° 0 mm 7 mps 730 mmHg 51%
    09:00 +18°C° 0 mm 7 mps 730 mmHg 40%
    10:00 +21°C° 0 mm 6 mps 730 mmHg 30%
    11:00 +23°C° 0 mm 6 mps 730 mmHg 20%
    12:00 +24°C° 0 mm 6 mps 729 mmHg 18%
    13:00 +26°C° 0 mm 6 mps 729 mmHg 15%
    14:00 +27°C° 0 mm 5 mps 729 mmHg 12%
    15:00 +27°C° 0 mm 5 mps 729 mmHg 12%
    16:00 +27°C° 0 mm 5 mps 729 mmHg 11%
    17:00 +27°C° 0 mm 4 mps 729 mmHg 11%
    18:00 +23°C° 0 mm 4 mps 729 mmHg 13%
    19:00 +21°C° 0 mm 4 mps 730 mmHg 15%
    20:00 +19°C° 0 mm 4 mps 730 mmHg 17%
    21:00 +17°C° 0 mm 5 mps 730 mmHg 19%
    22:00 +16°C° 0 mm 5 mps 731 mmHg 21%
    23:00 +15°C° 0 mm 5 mps 731 mmHg 23%

    25 October, Friday

    Time Temperature Precipitation Wind Pressure Humidity
    00:00 +14°C° 0 mm 5 mps 731 mmHg 34%
    01:00 +12°C° 0 mm 5 mps 730 mmHg 44%
    02:00 +10°C° 0 mm 5 mps 730 mmHg 54%
    03:00 +10°C° 0 mm 4 mps 731 mmHg 59%
    04:00 +10°C° 0 mm 4 mps 731 mmHg 64%
    05:00 +9°C° 0 mm 3 mps 731 mmHg 69%
    06:00 +11°C° 0 mm 3 mps 732 mmHg 63%
    07:00 +13°C° 0 mm 3 mps 732 mmHg 57%
    08:00 +16°C° 0 mm 3 mps 733 mmHg 51%
    09:00 +17°C° 0 mm 3 mps 733 mmHg 44%
    10:00 +19°C° 0 mm 2 mps 733 mmHg 37%
    11:00 +22°C° 0 mm 1 mps 733 mmHg 30%
    12:00 +23°C° 0 mm 1 mps 732 mmHg 26%
    13:00 +25°C° 0 mm 2 mps 731 mmHg 23%
    14:00 +26°C° 0 mm 3 mps 731 mmHg 20%
    15:00 +26°C° 0 mm 3 mps 731 mmHg 19%
    16:00 +26°C° 0 mm 4 mps 731 mmHg 18%
    17:00 +26°C° 0 mm 4 mps 730 mmHg 17%
    18:00 +23°C° 0 mm 4 mps 731 mmHg 21%
    19:00 +21°C° 0 mm 4 mps 731 mmHg 25%
    20:00 +19°C° 0 mm 4 mps 731 mmHg 29%
    21:00 +17°C° 0 mm 5 mps 732 mmHg 34%
    22:00 +16°C° 0 mm 6 mps 732 mmHg 39%
    23:00 +15°C° 0 mm 7 mps 732 mmHg 44%

    26 October, Saturday

    Time Temperature Precipitation Wind Pressure Humidity
    00:00 +14°C° 0 mm 7 mps 732 mmHg 49%
    01:00 +13°C° 0 mm 6 mps 732 mmHg 53%
    02:00 +11°C° 0 mm 6 mps 731 mmHg 58%
    03:00 +12°C° 0 mm 5 mps 732 mmHg 63%
    04:00 +11°C° 0 mm 4 mps 732 mmHg 67%
    05:00 +10°C° 0 mm 4 mps 732 mmHg 71%
    06:00 +12°C° 0 mm 4 mps 733 mmHg 63%
    07:00 +14°C° 0 mm 5 mps 733 mmHg 55%
    08:00 +16°C° 0 mm 5 mps 733 mmHg 46%
    09:00 +19°C° 0 mm 5 mps 733 mmHg 39%
    10:00 +21°C° 0 mm 4 mps 733 mmHg 33%
    11:00 +23°C° 0 mm 4 mps 733 mmHg 26%
    12:00 +26°C° 0 mm 3 mps 732 mmHg 23%
    13:00 +27°C° 0 mm 3 mps 732 mmHg 21%
    14:00 +28°C° 0 mm 3 mps 731 mmHg 19%
    15:00 +28°C° 0 mm 3 mps 731 mmHg 18%
    16:00 +28°C° 0 mm 3 mps 731 mmHg 18%
    17:00 +28°C° 0 mm 3 mps 730 mmHg 17%
    18:00 +26°C° 0 mm 3 mps 731 mmHg 20%
    19:00 +23°C° 0 mm 4 mps 731 mmHg 22%
    20:00 +21°C° 0 mm 4 mps 731 mmHg 25%
    21:00 +21°C° 0 mm 4 mps 731 mmHg 27%
    22:00 +20°C° 0 mm 5 mps 731 mmHg 29%
    23:00 +19°C° 0 mm 5 mps 731 mmHg 32%

    27 October, Sunday

    Time Temperature Precipitation Wind Pressure Humidity
    00:00 +17°C° 0 mm 5 mps 731 mmHg 34%
    01:00 +16°C° 0 mm 5 mps 730 mmHg 36%
    02:00 +15°C° 0 mm 5 mps 730 mmHg 39%
    03:00 +15°C° 0 mm 5 mps 730 mmHg 44%
    04:00 +14°C° 0 mm 5 mps 730 mmHg 49%
    05:00 +13°C° 0 mm 4 mps 730 mmHg 54%
    06:00 +16°C° 0 mm 5 mps 731 mmHg 47%
    07:00 +18°C° 0 mm 7 mps 731 mmHg 40%
    08:00 +22°C° 0 mm 8 mps 732 mmHg 33%
    09:00 +24°C° 0 mm 7 mps 731 mmHg 28%
    10:00 +28°C° 0 mm 7 mps 731 mmHg 23%
    11:00 +30°C° 0 mm 7 mps 730 mmHg 18%
    12:00 +32°C° 0 mm 6 mps 730 mmHg 17%
    13:00 +33°C° 0 mm 5 mps 729 mmHg 15%
    14:00 +34°C° 0 mm 4 mps 728 mmHg 14%
    15:00 +34°C° 0 mm 4 mps 728 mmHg 14%
    16:00 +34°C° 0 mm 3 mps 727 mmHg 14%
    17:00 +34°C° 0 mm 3 mps 727 mmHg 14%
    18:00 +32°C° 0 mm 4 mps 727 mmHg 16%
    19:00 +28°C° 0 mm 5 mps 727 mmHg 18%
    20:00 +26°C° 0 mm 6 mps 727 mmHg 21%
    21:00 +26°C° 0 mm 7 mps 727 mmHg 21%
    22:00 +24°C° 0 mm 8 mps 726 mmHg 22%
    23:00 +24°C° 0 mm 9 mps 726 mmHg 22%

    28 October, Monday

    Time Temperature Precipitation Wind Pressure Humidity
    00:00 +23°C° 0 mm 9 mps 726 mmHg 23%
    01:00 +23°C° 0 mm 10 mps 725 mmHg 23%
    02:00 +23°C° 0 mm 10 mps 725 mmHg 24%
    03:00 +23°C° 0 mm 10 mps 724 mmHg 24%
    04:00 +22°C° 0 mm 10 mps 724 mmHg 25%
    05:00 +22°C° 0 mm 10 mps 724 mmHg 25%
    06:00 +26°C° 0 mm 11 mps 724 mmHg 23%
    07:00 +29°C° 0 mm 13 mps 724 mmHg 22%
    08:00 +32°C° 0 mm 14 mps 723 mmHg 20%
    09:00 +36°C° 0 mm 13 mps 723 mmHg 16%
    10:00 +39°C° 0 mm 13 mps 723 mmHg 12%
    11:00 +43°C° 0 mm 12 mps 722 mmHg 8%
    12:00 +43°C° 0 mm 12 mps 722 mmHg 8%
    13:00 +43°C° 0 mm 13 mps 722 mmHg 8%
    14:00 +43°C° 0 mm 13 mps 722 mmHg 8%
    15:00 +39°C° 0 mm 13 mps 722 mmHg 14%
    16:00 +36°C° 0 mm 12 mps 723 mmHg 19%
    17:00 +32°C° 0 mm 12 mps 723 mmHg 25%
    18:00 +27°C° 0 mm 12 mps 724 mmHg 37%
    19:00 +22°C° 0 mm 12 mps 725 mmHg 48%
    20:00 +17°C° 0 mm 11 mps 727 mmHg 60%
    21:00 +16°C° 0 mm 11 mps 727 mmHg 64%
    22:00 +14°C° 0 mm 10 mps 728 mmHg 67%
    23:00 +12°C° 0 mm 9 mps 728 mmHg 71%
    Show more